Location: Godiavel Galaoual
(15.2485°N, 12.6604°W)
Time: 10:22:15
(UTC+00:00)

Hubble Space Telescope - Pass Details

Date: 18 May 2021
Orbit: 535 x 539 km, 28.5° (Epoch: 17 June)

Event Time Altitude Azimuth Distance (km) Brightness Sun altitude
Exits shadow 03:52:03 14° 91° (E) 1,524 3.6 -32.7°
Drops below altitude 10° 03:52:47 10° 86° (E) 1,774 4.0 -32.6°
Sets 03:55:11 0° 76° (ENE) 2,664 5.3 -32.1°
